This is the latest recevied weather packets stored in our database for station/object SR4DIG-13. If no packets are shown the sender has not sent any weather packets the latest 10 day(s).
| Time | Temp. | Humidity | Pressure | Rain* | Wind** | Luminosity | Snow |
|---|---|---|---|---|---|---|---|
| 1777449186 | 6.11° C | 53% | 1025.2 hPa | 0 mm | - | - | - |
| 1777448885 | 6.11° C | 52% | 1025.1 hPa | 0 mm | - | - | - |
| 1777448584 | 6.11° C | 52% | 1025.1 hPa | 0 mm | - | - | - |
| 1777448284 | 6.67° C | 51% | 1025 hPa | 0 mm | - | - | - |
| 1777447982 | 6.67° C | 50% | 1025 hPa | 0 mm | - | - | - |
| 1777447681 | 7.78° C | 49% | 1024.8 hPa | 0 mm | - | - | - |
| 1777447381 | 7.78° C | 49% | 1024.8 hPa | 0 mm | - | - | - |
| 1777447080 | 8.33° C | 49% | 1024.8 hPa | 0 mm | - | - | - |
| 1777446779 | 7.78° C | 50% | 1024.8 hPa | 0 mm | - | - | - |
| 1777446160 | 7.78° C | 52% | 1024.9 hPa | 0 mm | - | - | - |
| 1777445859 | 7.22° C | 54% | 1024.6 hPa | 0 mm | - | - | - |
| 1777445559 | 7.22° C | 55% | 1024.7 hPa | 0 mm | - | - | - |
| 1777445258 | 6.11° C | 56% | 1024.8 hPa | 0 mm | - | - | - |
| 1777444957 | 6.11° C | 56% | 1024.7 hPa | 0 mm | - | - | - |
| 1777444656 | 6.11° C | 57% | 1024.5 hPa | 0 mm | - | - | - |
| 1777444355 | 5.56° C | 57% | 1024.6 hPa | 0 mm | - | - | - |
| 1777444054 | 5.56° C | 58% | 1024.5 hPa | 0 mm | - | - | - |
| 1777443452 | 5.56° C | 58% | 1024.5 hPa | 0 mm | - | - | - |
| 1777443151 | 5° C | 60% | 1024.4 hPa | 0 mm | - | - | - |
| 1777442568 | 5° C | 60% | 1024.3 hPa | 0 mm | - | - | - |
| 1777442268 | 5° C | 61% | 1024.3 hPa | 0 mm | - | - | - |
| 1777441967 | 4.44° C | 61% | 1024.2 hPa | 0 mm | - | - | - |
| 1777441666 | 4.44° C | 62% | 1024.1 hPa | 0 mm | - | - | - |
| 1777441365 | 4.44° C | 63% | 1024.1 hPa | 0 mm | - | - | - |
| 1777441064 | 3.89° C | 63% | 1024.2 hPa | 0 mm | - | - | - |
* Rain since midnight (hover to see other rain measurements)
** Current wind speed in m/s (hover to see current wind gust speed)